Selinsgrove, PA

3:51 AM EDT on September 23, 2017 (GMT -0400)
Penn Valley

Weather History for KSEG - February, 2013

Change the Weather History Date:

Saturday, February 23, 2013

  Actual Average (KIPT) Record (KIPT)
Temperature  
Mean Temperature 35 °F -  
Max Temperature 37 °F 39 °F 70 °F (1985)
Min Temperature 33 °F 22 °F -6 °F (1972)
Degree Days  
Heating Degree Days 30    
Moisture  
Dew Point 33 °F    
Average Humidity 94    
Maximum Humidity 100    
Minimum Humidity 78    
Precipitation  
Precipitation 0.01 in - - ()
Sea Level Pressure  
Sea Level Pressure 30.00 in    
Wind  
Wind Speed 3 mph (SSW)    
Max Wind Speed 9 mph    
Max Gust Speed -    
Visibility 3 miles    
Events Fog    
Averages and records for this station are not official NWS values.
T = Trace of Precipitation, MM = Missing Value Source: NWS Daily Summary

Daily Weather History Graph

Daily Weather History Graph

Search for Another Location

Airport or City:

Trip Planner

Search our weather history database for the weather conditions in past years. The results will help you decide how hot, cold, wet, or windy it might be!

Date:

Astronomy

Feb. 23, 2013 Rise Set
Actual Time 6:50 AM EST 5:51 PM EST
Civil Twilight 6:22 AM EST 6:19 PM EST
Nautical Twilight 5:50 AM EST 6:51 PM EST
Astronomical Twilight 5:18 AM EST 7:23 PM EST
Moon 3:59 PM EST 5:11 AM EST
Length of Visible Light 11h 57m
Length of Day
11h 01m
Waxing Gibbous, 95% of the Moon is Illuminated
Feb 23
Waxing Gibbous
Feb 25
Full
Mar 4
Last Quarter
Mar 11
New
Mar 19
First Quarter

Hourly Weather History & Observations

Time (EST) Temp. Windchill Dew Point Humidity Pressure Visibility Wind Dir Wind Speed Gust Speed Precip Events Conditions
12:53 AM 33.1 °F 27.7 °F 27.0 °F 78% 30.20 in 10.0 mi South 5.8 mph - N/A   Overcast
1:53 AM 33.1 °F 27.7 °F 28.0 °F 82% 30.17 in 8.0 mi South 5.8 mph - N/A   Overcast
2:53 AM 34.0 °F 29.8 °F 28.0 °F 79% 30.16 in 8.0 mi South 4.6 mph - N/A   Overcast
3:25 AM 33.8 °F 26.4 °F 28.4 °F 81% 30.13 in 7.0 mi South 9.2 mph - N/A   Overcast
3:53 AM 33.1 °F 26.1 °F 30.0 °F 89% 30.14 in 8.0 mi South 8.1 mph - N/A   Overcast
4:22 AM 33.8 °F 29.6 °F 30.2 °F 87% 30.11 in 8.0 mi South 4.6 mph - N/A   Overcast
4:37 AM 33.8 °F 29.6 °F 30.2 °F 87% 30.11 in 9.0 mi South 4.6 mph - N/A   Overcast
4:53 AM 34.0 °F 31.0 °F 30.0 °F 85% 30.12 in 9.0 mi SSE 3.5 mph - N/A   Overcast
5:46 AM 33.8 °F 30.8 °F 30.2 °F 87% 30.09 in 7.0 mi South 3.5 mph - N/A   Overcast
5:53 AM 34.0 °F 31.0 °F 30.9 °F 89% 30.11 in 7.0 mi South 3.5 mph - N/A   Overcast
6:34 AM 33.8 °F - 32.0 °F 93% 30.09 in 2.5 mi Calm Calm - N/A   Overcast
6:51 AM 33.8 °F - 32.0 °F 93% 30.09 in 2.0 mi Calm Calm - N/A   Overcast
7:11 AM 33.8 °F - 32.0 °F 93% 30.10 in 1.8 mi Calm Calm - N/A   Overcast
7:38 AM 33.8 °F - 32.0 °F 93% 30.09 in 1.0 mi Calm Calm - N/A   Overcast
7:50 AM 33.8 °F - 32.0 °F 93% 30.09 in 0.8 mi Calm Calm - N/A   Overcast
7:53 AM 33.1 °F - 33.1 °F 100% 30.10 in 0.8 mi Calm Calm - N/A   Overcast
8:53 AM 33.1 °F - 32.0 °F 96% 30.07 in 0.5 mi Calm Calm - N/A Fog Fog
9:53 AM 34.0 °F - 33.1 °F 96% 30.04 in 0.8 mi Calm Calm - N/A   Overcast
10:07 AM 33.8 °F - 33.8 °F 100% 30.02 in 1.2 mi Calm Calm - N/A   Overcast
10:53 AM 35.1 °F 32.2 °F 34.0 °F 96% 30.02 in 1.2 mi SW 3.5 mph - N/A   Overcast
11:29 AM 35.6 °F 32.8 °F 33.8 °F 93% 30.02 in 2.0 mi West 3.5 mph - N/A   Overcast
11:31 AM 35.6 °F - 33.8 °F 93% 30.02 in 1.8 mi Calm Calm - N/A   Overcast
11:53 AM 35.1 °F - 34.0 °F 96% 30.03 in 1.2 mi Calm Calm - N/A   Overcast
12:35 PM 35.6 °F - 33.8 °F 93% 29.99 in 1.5 mi Calm Calm - N/A   Overcast
12:53 PM 35.1 °F - 34.0 °F 96% 29.99 in 2.0 mi Calm Calm - N/A   Overcast
12:58 PM 35.6 °F - 33.8 °F 93% 29.98 in 1.8 mi Calm Calm - N/A   Overcast
1:20 PM 35.6 °F - 33.8 °F 93% 29.97 in 2.5 mi Calm Calm - N/A   Overcast
1:29 PM 35.6 °F - 33.8 °F 93% 29.97 in 4.0 mi Calm Calm - N/A   Overcast
1:42 PM 35.6 °F - 33.8 °F 93% 29.96 in 3.0 mi Calm Calm - N/A   Overcast
1:53 PM 36.0 °F 33.3 °F 34.0 °F 93% 29.96 in 3.0 mi SSW 3.5 mph - N/A   Overcast
2:53 PM 36.0 °F - 34.0 °F 93% 29.95 in 5.0 mi Calm Calm - N/A   Overcast
3:53 PM 36.0 °F 33.3 °F 35.1 °F 97% 29.92 in 3.0 mi East 3.5 mph - N/A   Overcast
4:08 PM 35.6 °F 32.8 °F 35.6 °F 100% 29.90 in 2.5 mi ESE 3.5 mph - N/A   Overcast
4:30 PM 37.4 °F - 35.6 °F 93% 29.90 in 3.0 mi Calm Calm - N/A   Overcast
4:41 PM 37.4 °F - 35.6 °F 93% 29.90 in 2.5 mi Calm Calm - N/A   Overcast
4:53 PM 36.0 °F - 35.1 °F 97% 29.91 in 2.5 mi Calm Calm - N/A   Overcast
5:10 PM 35.6 °F - 35.6 °F 100% 29.90 in 1.5 mi Calm Calm - N/A   Overcast
5:20 PM 35.6 °F - 35.6 °F 100% 29.90 in 1.0 mi Calm Calm - N/A   Overcast
5:27 PM 35.6 °F - 35.6 °F 100% 29.90 in 0.8 mi Calm Calm - N/A   Overcast
5:53 PM 36.0 °F - 35.1 °F 97% 29.92 in 0.5 mi Calm Calm - N/A Fog Fog
6:53 PM 35.1 °F - 35.1 °F 100% 29.92 in 0.2 mi Calm Calm - N/A Fog Fog
7:53 PM 34.0 °F - 34.0 °F 100% 29.91 in 0.2 mi Calm Calm - N/A Fog Fog
8:53 PM 34.0 °F 31.0 °F 34.0 °F 100% 29.89 in 0.5 mi NNW 3.5 mph - N/A Fog Fog
9:53 PM 35.1 °F - 34.0 °F 96% 29.89 in 1.0 mi Calm Calm - N/A   Overcast
10:09 PM 35.6 °F - 35.6 °F 100% 29.87 in 0.8 mi Calm Calm - 0.01 in   Overcast
10:26 PM 35.6 °F 32.8 °F 33.8 °F 93% 29.88 in 1.2 mi WNW 3.5 mph - 0.01 in   Overcast
10:34 PM 35.6 °F - 33.8 °F 93% 29.87 in 2.5 mi Calm Calm - 0.01 in   Overcast
10:53 PM 34.0 °F 31.0 °F 33.1 °F 96% 29.88 in 1.5 mi NNW 3.5 mph - 0.01 in   Overcast
11:07 PM 33.8 °F 28.6 °F 33.8 °F 100% 29.86 in 0.8 mi NNW 5.8 mph - N/A   Overcast
11:53 PM 35.1 °F - 34.0 °F 96% 29.87 in 0.5 mi Calm Calm - N/A Fog Fog